CW9197 Juva FI current weather conditions

sailwx.info

Wind from 204 at 0 knots gusting 3

Air temperature -0.0° C
Dewpoint -0.0° C

Last reported at 2015-Apr-01 03:45 UTC.
Time now 2015-Apr-01 04:36 UTC

Location: N 61°53' E 027°53'.
View on Google Maps.

See reports from other nearby stations

  
Tides and Currents Weather Stations Pressure Air Temp Water Temp Dewpoint Dewpoint Depression Visibility Wind Speed Wind Dir Waves Ship Positions
date/time (UTC)wind fromknots sea level pressurealtimeterstation pressurevisibilityair tempwater tempwave heightnotes
2015-Apr-01 03:45 204 0 gusting 3 -0.0
2015-Apr-01 03:35 200 0 gusting 2 -0.0
2015-Apr-01 03:25 205 1 gusting 2 -0.0
2015-Apr-01 03:15 195 2 gusting 4 -0.0
2015-Apr-01 03:05 201 2 gusting 6 -0.0
2015-Apr-01 02:55 198 1 gusting 2 -0.0
2015-Apr-01 02:45 201 0 gusting 1 -0.0
2015-Apr-01 02:35 200 0 gusting 4 -0.0
2015-Apr-01 02:25 200 0 gusting 5 -0.0
2015-Apr-01 02:15 203 1 gusting 3 -0.0
2015-Apr-01 02:05 199 1 gusting 3 -0.0
2015-Apr-01 01:55 209 1 gusting 4 -0.0
2015-Apr-01 01:45 208 1 gusting 6 -0.0
2015-Apr-01 01:35 201 1 gusting 5 -0.0
2015-Apr-01 01:25 204 1 gusting 2 -0.0
2015-Apr-01 01:15 207 1 gusting 6 -0.0
2015-Apr-01 01:05 210 1 gusting 5 -0.0
2015-Apr-01 00:55 216 2 gusting 6 -0.0
2015-Apr-01 00:45 210 3 gusting 6 -0.0
2015-Apr-01 00:35 208 3 gusting 6 -0.0
2015-Apr-01 00:25 212 3 gusting 6 -0.0
2015-Apr-01 00:15 211 3 gusting 7 -0.0
2015-Apr-01 00:05 203 4 gusting 6 -0.0
2015-Mar-31 23:55 207 3 gusting 5 -0.0
2015-Mar-31 23:45 206 3 gusting 5 -0.0
2015-Mar-31 23:35 211 2 gusting 6 -0.0
2015-Mar-31 23:25 206 3 gusting 6 0.6
2015-Mar-31 23:15 203 3 gusting 6 0.6
2015-Mar-31 23:05 204 3 gusting 6 0.6
2015-Mar-31 22:55 204 3 gusting 5 0.6
2015-Mar-31 22:45 204 3 gusting 8 0.6
2015-Mar-31 22:35 202 3 gusting 7 0.6
2015-Mar-31 22:25 206 3 gusting 6 0.6
2015-Mar-31 22:15 202 3 gusting 6 0.6
2015-Mar-31 22:05 200 3 gusting 6 0.6
2015-Mar-31 21:55 201 3 gusting 6 0.6
2015-Mar-31 21:45 201 3 gusting 6 0.6
2015-Mar-31 21:35 202 2 gusting 6 0.6
2015-Mar-31 21:25 203 2 gusting 7 0.6
2015-Mar-31 21:15 203 3 gusting 5 0.6
2015-Mar-31 21:05 204 3 gusting 6 0.6
2015-Mar-31 20:55 202 3 gusting 5 0.6
2015-Mar-31 20:45 203 3 gusting 5 0.6
2015-Mar-31 20:35 205 4 gusting 6 0.6
2015-Mar-31 20:25 203 3 gusting 6 0.6
2015-Mar-31 20:15 202 3 gusting 7 0.6
2015-Mar-31 20:05 201 4 gusting 6 0.6
2015-Mar-31 19:55 203 4 gusting 6 0.6
2015-Mar-31 19:45 202 4 gusting 6 0.6
2015-Mar-31 19:35 197 4 gusting 7 0.6
2015-Mar-31 19:25 203 3 gusting 6 0.6
2015-Mar-31 19:15 202 4 gusting 7 0.6
2015-Mar-31 19:05 203 4 gusting 7 -0.0
2015-Mar-31 18:55 200 4 gusting 9 -0.0
2015-Mar-31 18:45 203 5 gusting 7 -0.0
2015-Mar-31 18:35 202 5 gusting 7 -0.0
2015-Mar-31 18:25 203 5 gusting 7 -0.0
2015-Mar-31 18:15 200 5 gusting 7 -0.0
2015-Mar-31 18:05 203 4 gusting 7 -0.0
2015-Mar-31 17:55 202 4 gusting 6 -0.0
2015-Mar-31 17:45 199 4 gusting 6 -0.0
2015-Mar-31 17:35 200 4 gusting 6 -0.0
2015-Mar-31 17:25 199 4 gusting 6 -0.0
2015-Mar-31 17:15 199 3 gusting 7 -0.0
2015-Mar-31 17:05 192 3 gusting 6 -0.0
2015-Mar-31 16:55 196 3 gusting 6 -0.0
2015-Mar-31 16:45 197 2 gusting 4 -0.0
2015-Mar-31 16:35 200 2 gusting 5 -0.0
2015-Mar-31 16:25 195 2 gusting 6 -0.0
2015-Mar-31 16:15 200 2 gusting 5 -0.0
2015-Mar-31 16:05 205 3 gusting 5 -0.0
2015-Mar-31 15:55 206 5 gusting 7 0.6
2015-Mar-31 15:45 203 6 gusting 8 0.6
2015-Mar-31 15:35 202 6 gusting 12 0.6
2015-Mar-31 15:25 207 4 gusting 7 1.1
2015-Mar-31 15:15 206 5 gusting 7 1.1
2015-Mar-31 15:05 206 4 gusting 6 1.7
2015-Mar-31 14:55 195 4 gusting 7 1.7
2015-Mar-31 14:45 193 5 gusting 9 1.7
2015-Mar-31 14:35 186 5 gusting 9 1.7
2015-Mar-31 14:25 200 5 gusting 8 1.7
2015-Mar-31 14:15 199 6 gusting 9 1.7
2015-Mar-31 14:05 197 6 gusting 9 1.7
2015-Mar-31 13:55 198 6 gusting 9 1.7
2015-Mar-31 13:45 197 6 gusting 9 1.7
2015-Mar-31 13:35 193 6 gusting 10 1.7
2015-Mar-31 13:25 194 6 gusting 8 1.7
2015-Mar-31 13:15 193 6 gusting 10 1.7
2015-Mar-31 13:05 193 7 gusting 12 1.7
2015-Mar-31 12:55 193 6 gusting 11 2.2
2015-Mar-31 12:45 191 6 gusting 12 2.2
2015-Mar-31 12:35 201 6 gusting 10 2.2
2015-Mar-31 12:25 200 7 gusting 10 2.2
2015-Mar-31 12:15 196 7 gusting 11 2.2
2015-Mar-31 12:05 196 7 gusting 14 2.2
2015-Mar-31 11:55 198 8 gusting 14 2.2
2015-Mar-31 11:45 203 6 gusting 13 2.8
2015-Mar-31 11:35 198 7 gusting 13 2.8
2015-Mar-31 11:25 203 8 gusting 14 2.2
2015-Mar-31 11:15 200 9 gusting 15 2.2
2015-Mar-31 11:05 198 8 gusting 12 2.2
2015-Mar-31 10:55 202 9 gusting 12 2.2
2015-Mar-31 10:45 203 8 gusting 13 2.2
2015-Mar-31 10:35 197 7 gusting 12 2.2
2015-Mar-31 10:25 192 6 gusting 13 2.2
2015-Mar-31 10:15 192 6 gusting 13 2.2
2015-Mar-31 10:05 183 7 gusting 13 2.2
2015-Mar-31 09:55 193 7 gusting 13 2.2
2015-Mar-31 09:45 191 7 gusting 16 2.2
2015-Mar-31 09:35 185 8 gusting 19 2.2
2015-Mar-31 09:25 188 8 gusting 16 1.7
2015-Mar-31 09:15 187 6 gusting 10 2.2
2015-Mar-31 09:05 185 8 gusting 16 1.7
2015-Mar-31 08:55 177 6 gusting 13 1.7
2015-Mar-31 08:45 181 7 gusting 16 1.7
2015-Mar-31 08:35 184 7 gusting 12 1.7
2015-Mar-31 08:25 176 8 gusting 14 1.7
2015-Mar-31 08:15 180 7 gusting 14 1.7
2015-Mar-31 08:05 174 7 gusting 14 1.7
2015-Mar-31 07:55 176 5 gusting 14 1.1
2015-Mar-31 07:45 171 5 gusting 12 1.1
2015-Mar-31 07:35 168 4 gusting 12 1.1
2015-Mar-31 07:25 169 5 gusting 13 1.1
2015-Mar-31 07:15 149 3 gusting 10 1.1
2015-Mar-31 07:05 134 4 gusting 10 0.6
2015-Mar-31 06:55 138 4 gusting 9 0.6
2015-Mar-31 06:45 134 3 gusting 9 0.6
2015-Mar-31 06:35 123 2 gusting 7 0.6
2015-Mar-31 06:25 143 5 gusting 15 0.6
2015-Mar-31 06:15 123 2 gusting 6 -0.0
2015-Mar-31 06:05 117 4 gusting 10 -0.0
2015-Mar-31 05:55 118 4 gusting 13 -0.0
2015-Mar-31 05:45 122 4 gusting 9 -0.0
2015-Mar-31 05:35 114 2 gusting 8 -0.0
2015-Mar-31 05:25 107 4 gusting 11 -0.0
2015-Mar-31 05:15 104 3 gusting 8 -0.0
2015-Mar-31 05:05 098 4 gusting 9 -0.0
2015-Mar-31 04:55 104 4 gusting 8 -0.0
2015-Mar-31 04:45 114 4 gusting 10 -0.0
2015-Mar-31 04:35 112 4 gusting 12 -0.0
2015-Mar-31 04:25 123 4 gusting 13 -0.0
2015-Mar-31 04:15 121 4 gusting 9 -0.0
2015-Mar-31 04:05 125 4 gusting 11 -0.0
2015-Mar-31 03:55 157 4 gusting 11 -0.0
2015-Mar-31 03:45 131 4 gusting 12 -0.0
2015-Mar-31 03:35 144 3 gusting 10 -0.0
2015-Mar-31 03:25 155 3 gusting 8 -0.0
2015-Mar-31 03:15 160 2 gusting 6 -0.0
2015-Mar-31 03:05 164 3 gusting 8 -0.0
2015-Mar-31 02:55 163 2 gusting 9 -0.0
2015-Mar-31 02:45 161 3 gusting 8 -0.0
2015-Mar-31 02:35 162 2 gusting 7 -0.0
2015-Mar-31 02:25 152 2 gusting 6 -0.0
2015-Mar-31 02:15 144 2 gusting 7 -0.0
2015-Mar-31 02:05 160 3 gusting 6 -0.0
2015-Mar-31 01:55 164 3 gusting 11 -0.0
2015-Mar-31 01:45 159 3 gusting 8 -0.0
2015-Mar-31 01:35 159 3 gusting 10 -0.6
2015-Mar-31 01:25 157 2 gusting 6 -0.6
2015-Mar-31 01:15 167 2 gusting 6 -0.6
2015-Mar-31 01:05 155 3 gusting 7 -0.6
2015-Mar-31 00:55 169 3 gusting 9 -0.6
2015-Mar-31 00:45 175 5 gusting 10 -0.6
2015-Mar-31 00:35 168 5 gusting 11 -0.6
2015-Mar-31 00:25 168 3 gusting 9 -0.6
2015-Mar-31 00:15 156 3 gusting 9 -0.6
2015-Mar-31 00:05 179 4 gusting 11 -0.6
2015-Mar-30 23:55 166 2 gusting 7 -0.6
2015-Mar-30 23:45 158 2 gusting 7 -0.6
2015-Mar-30 23:35 163 4 gusting 8 -0.6
2015-Mar-30 23:25 156 4 gusting 12 -0.6
2015-Mar-30 23:15 162 3 gusting 8 -0.6
2015-Mar-30 23:05 161 2 gusting 8 -0.6
2015-Mar-30 22:55 164 2 gusting 8 -0.6
2015-Mar-30 22:45 149 3 gusting 10 -0.6
2015-Mar-30 22:35 148 2 gusting 7 -0.6
2015-Mar-30 22:25 154 3 gusting 12 -0.6
2015-Mar-30 22:15 168 5 gusting 13 -0.6
2015-Mar-30 22:05 164 2 gusting 7 -0.6
2015-Mar-30 21:55 143 2 gusting 7 -0.6
2015-Mar-30 21:45 159 1 gusting 7 -0.6
2015-Mar-30 21:35 155 2 gusting 8 -0.6
2015-Mar-30 21:25 143 2 gusting 6 -0.6
2015-Mar-30 21:15 161 2 gusting 9 -0.6
2015-Mar-30 21:05 131 1 gusting 5 -0.6
2015-Mar-30 20:55 146 2 gusting 8 -0.6
2015-Mar-30 20:45 158 2 gusting 6 -0.6
2015-Mar-30 20:35 132 3 gusting 8 -0.6
2015-Mar-30 20:25 145 3 gusting 8 -0.6
2015-Mar-30 20:15 133 1 gusting 6 -0.6
2015-Mar-30 20:05 163 2 gusting 6 -0.6
2015-Mar-30 19:55 133 1 gusting 5 -0.6
2015-Mar-30 19:45 162 3 gusting 7 -0.6
2015-Mar-30 19:35 125 2 gusting 6 -0.6
2015-Mar-30 19:25 151 2 gusting 7 -0.6
2015-Mar-30 19:15 151 4 gusting 10 -0.6
2015-Mar-30 19:05 158 1 gusting 7 -0.6
2015-Mar-30 18:55 142 2 gusting 6 -0.6
2015-Mar-30 18:45 156 3 gusting 6 -0.6
2015-Mar-30 18:35 116 2 gusting 8 -0.6
2015-Mar-30 18:25 157 2 gusting 6 -0.6
2015-Mar-30 18:15 144 2 gusting 8 -0.6
2015-Mar-30 18:05 137 2 gusting 6 -0.6
2015-Mar-30 17:55 129 3 gusting 8 -0.6
2015-Mar-30 17:45 141 2 gusting 6 -0.6
2015-Mar-30 17:35 116 2 gusting 7 -0.6
2015-Mar-30 17:25 119 1 gusting 5 -0.6
2015-Mar-30 17:15 120 3 gusting 7 -0.6
2015-Mar-30 17:05 138 2 gusting 8 -0.6
2015-Mar-30 16:55 124 2 gusting 6 -0.6
2015-Mar-30 16:45 107 1 gusting 5 -0.6
2015-Mar-30 16:35 113 2 gusting 11 -0.6
2015-Mar-30 16:25 119 4 gusting 8 -0.0
2015-Mar-30 16:15 110 3 gusting 7 -0.0
2015-Mar-30 16:05 110 3 gusting 7 -0.0
2015-Mar-30 15:55 118 2 gusting 11 -0.0
2015-Mar-30 15:45 135 2 gusting 7 -0.0
2015-Mar-30 15:35 105 2 gusting 7 -0.0
2015-Mar-30 15:25 124 2 gusting 6 -0.0
2015-Mar-30 15:15 144 3 gusting 8 -0.0
2015-Mar-30 15:05 138 3 gusting 11 -0.0
2015-Mar-30 14:55 137 3 gusting 8 -0.0
2015-Mar-30 14:45 146 3 gusting 10 -0.0
2015-Mar-30 14:35 143 3 gusting 8 -0.0
2015-Mar-30 14:25 157 4 gusting 11 -0.0
2015-Mar-30 14:15 164 4 gusting 9 -0.0
2015-Mar-30 14:05 154 5 gusting 10 -0.0
2015-Mar-30 13:55 166 5 gusting 10 -0.0
2015-Mar-30 13:45 169 3 gusting 8 -0.0
2015-Mar-30 13:35 158 3 gusting 11 -0.0
2015-Mar-30 13:25 165 4 gusting 8 -0.0
2015-Mar-30 13:15 168 4 gusting 7 -0.0
2015-Mar-30 13:05 159 4 gusting 12 -0.0
2015-Mar-30 12:55 175 3 gusting 10 -0.0
2015-Mar-30 12:45 151 3 gusting 6 -0.0
2015-Mar-30 12:35 168 4 gusting 11 -0.0
2015-Mar-30 12:25 137 2 gusting 7 -0.0
2015-Mar-30 12:15 147 3 gusting 13 -0.0
2015-Mar-30 12:05 156 4 gusting 10 -0.0
2015-Mar-30 11:55 144 3 gusting 9 -0.0
2015-Mar-30 11:45 147 2 gusting 7 -0.0
2015-Mar-30 11:35 153 3 gusting 12 -0.0
2015-Mar-30 11:25 161 3 gusting 8 -0.0
2015-Mar-30 11:15 173 2 gusting 6 -0.0
2015-Mar-30 11:05 153 1 gusting 6 -0.0
2015-Mar-30 10:55 177 3 gusting 8 -0.0
2015-Mar-30 10:45 168 4 gusting 9 -0.6
2015-Mar-30 10:35 155 2 gusting 6 -0.6
2015-Mar-30 10:25 162 3 gusting 7 -0.6
2015-Mar-30 10:15 174 4 gusting 11 -0.6
2015-Mar-30 10:05 151 3 gusting 7 -0.6
2015-Mar-30 09:55 172 5 gusting 10 -0.6
2015-Mar-30 09:45 174 4 gusting 13 -0.6
2015-Mar-30 09:35 174 4 gusting 8 -0.6
2015-Mar-30 09:25 169 3 gusting 9 -0.6
2015-Mar-30 09:15 173 3 gusting 7 -0.6
2015-Mar-30 09:05 179 5 gusting 9 -0.6
2015-Mar-30 08:55 177 6 gusting 10 -0.6
2015-Mar-30 08:45 176 6 gusting 11 -0.6
2015-Mar-30 08:35 171 6 gusting 11 -0.6
2015-Mar-30 08:25 179 5 gusting 8 -0.6
2015-Mar-30 08:15 166 5 gusting 10 -0.6
2015-Mar-30 08:05 173 5 gusting 8 -0.6
2015-Mar-30 07:55 175 6 gusting 12 -0.6
2015-Mar-30 07:45 178 6 gusting 10 -0.6
2015-Mar-30 07:35 172 6 gusting 11 -0.6
2015-Mar-30 07:25 175 6 gusting 11 -0.6
2015-Mar-30 07:15 182 6 gusting 11 -1.1
2015-Mar-30 07:05 176 5 gusting 13 -1.1
2015-Mar-30 06:55 169 6 gusting 12 -1.1
2015-Mar-30 06:45 181 5 gusting 11 -1.1
2015-Mar-30 06:35 167 5 gusting 11 -1.1
2015-Mar-30 06:25 172 6 gusting 11 -1.1
2015-Mar-30 06:15 178 5 gusting 10 -1.1
2015-Mar-30 06:05 178 5 gusting 8 -1.1
2015-Mar-30 05:55 177 5 gusting 10 -1.1
2015-Mar-30 05:45 172 6 gusting 9 -1.1
2015-Mar-30 05:35 175 6 gusting 12 -1.1
2015-Mar-30 05:25 177 5 gusting 8 -1.1
2015-Mar-30 05:15 180 4 gusting 9 -1.1
2015-Mar-30 05:05 179 5 gusting 10 -1.1
2015-Mar-30 04:55 175 5 gusting 8 -1.1
2015-Mar-30 04:45 179 5 gusting 8 -1.1
2015-Mar-30 04:35 184 6 gusting 11 -0.6
2015-Mar-30 04:25 183 4 gusting 7 -0.6
2015-Mar-30 04:15 177 6 gusting 13 -0.6
2015-Mar-30 04:05 182 6 gusting 12 -0.6